Location: Platte
(43.3870°N, 98.8440°W)
Time: 21:04:04
(UTC-05:00)

Cosmos 1455 Rocket - Pass Details

Date: 21 May 2018
Orbit: 604 x 630 km, 82.5° (Epoch: 18 August)

Event Time Altitude Azimuth Distance (km) Brightness Sun altitude
Rises 23:25:04 0° 345° (NNW) 2,877 7.9 -19.9°
Reaches altitude 10° 23:27:21 10° 338° (NNW) 1,971 6.8 -20.1°
Maximum altitude 23:31:28 43° 268° (W) 864 3.9 -20.5°
Enters shadow 23:33:17 28° 215° (SW) 1,161 4.2 -20.7°
